www.pogodaiklimat.ru

Погода и климат >> Архив погоды >> Австралия >> Северная территория >> Теннант-Крик


ПОГОДА в Теннант-Крике

  • Прогноз погоды в Теннант-Крике
  • Монитор погоды в Теннант-Крике

АРХИВ ПОГОДЫ в Теннант-Крике

Время (UTC), дата Ветер
(напр.,м/с)
 
Видим.   Явления Облачность Т
(С)
Тd
(С)
f
(%)
Тe
(С)
Тes
(С)
Комфортность P
(гПа)
Po
(гПа)
Тmin
(С)
Tmax
(С)
R
(мм)
R24
(мм)
S
(см)
05 19.06 ЮВ 5 н/о н/о +19.9 -0.1 26 +20 +20 1018.0 974.4
06 19.06 ЮВ 5 н/о н/о +20.3 -0.3 25 +20 +20 1017.7 974.1
08 19.06 ЮВ 6 н/о н/о +19.9 -1.2 24 +20 +20 1018.0 974.4
09 19.06 ЮВ 4 н/о н/о +18.6 -0.7 27 +19 +19 1018.4 974.8
11 19.06 ЮВ 4 н/о н/о +16.5 -0.7 31 +16 +16 1019.5 975.8
12 19.06 ЮВ 5 н/о н/о +15.9 +0.1 34 +15 +15 1019.8 976.1
14 19.06 ЮВ 5 н/о н/о +14.5 0.0 37 +13 +13 1020.2 976.5 +21.3
15 19.06 ЮВ 4 н/о н/о +13.5 +0.5 41 +12 +12 1020.3 976.6
17 19.06 ЮВ 6 н/о н/о +12.1 +0.5 45 +10 +10 1020.2 976.5
18 19.06 ЮВ 6 н/о н/о +12.2 +0.9 46 +10 +10 1020.2 976.5
20 19.06 ЮВ 6 н/о н/о +11.1 +0.8 49 +9 +9 1020.4 976.7
21 19.06 ЮВ 5 н/о н/о +10.6 +0.6 50 +8 +8 1021.0 977.3
23 19.06 ЮВ 8 н/о н/о +13.0 +0.1 41 +10 +10 1022.3 978.5
00 20.06 ЮВ 9 н/о н/о +14.5 0.0 37 +12 +12 1022.6 978.8
02 20.06 В 7 н/о н/о +17.4 +0.6 32 +16 +16 1021.8 978.0 +10.5
03 20.06 ЮВ 7 н/о н/о +19.0 +0.6 29 +19 +19 1020.9 977.2
05 20.06 ЮВ 7 н/о н/о +20.1 -0.5 25 +20 +20 1019.1 975.4
06 20.06 ЮВ 6 н/о н/о +21.2 -0.1 24 +21 +21 комфорт 1018.7 975.1
08 20.06 ЮВ 6 н/о н/о +20.1 -1.1 24 +20 +20 1019.1 975.4
09 20.06 ЮВ 4 н/о н/о +18.6 -0.7 27 +19 +19 1019.4 975.7
11 20.06 ЮВ 5 н/о н/о +16.3 -0.4 32 +15 +15 1020.5 976.8
12 20.06 ЮВ 6 н/о н/о +15.5 -0.3 34 +14 +14 1020.9 977.2
14 20.06 ЮВ 7 н/о н/о +14.1 -0.4 37 +12 +12 1021.0 977.3 +21.5
15 20.06 ЮВ 7 н/о н/о +13.6 -0.4 38 +11 +11 1020.8 977.1
17 20.06 ЮВ 6 н/о н/о +11.8 -0.7 42 +9 +9 1020.9 977.2
18 20.06 ЮВ 7 н/о н/о +11.2 -0.6 44 +8 +8 1020.8 977.1
20 20.06 ЮВ 7 н/о н/о +10.1 -1.0 46 +7 +7 1021.1 977.4
21 20.06 ЮВ 6 н/о н/о +9.6 -1.1 47 +6 +6 1021.5 977.7
23 20.06 ЮВ 8 н/о н/о +10.8 -1.6 42 +8 +8 1022.4 978.6
00 21.06 ЮВ 9 н/о н/о +12.6 -2.1 36 +10 +10 1023.0 979.2
02 21.06 В 8 н/о н/о +15.6 -1.4 31 +14 +14 1022.2 978.4 +9.3
03 21.06 ЮВ 7 н/о н/о +17.7 -1.0 28 +17 +17 1021.0 977.3
05 21.06 ЮВ 6 н/о н/о +19.2 -1.3 25 +19 +19 1018.7 975.1
06 21.06 ЮВ 7 н/о н/о +19.5 -3.4 21 +19 +19 1018.2 974.6
08 21.06 ЮВ 6 н/о н/о +19.1 -5.7 18 +19 +19 1018.3 974.7
09 21.06 ЮВ 5 н/о н/о +17.5 -6.3 19 +17 +17 1018.6 975.0
11 21.06 ЮВ 4 н/о н/о +14.7 -5.6 24 +14 +14 1020.2 976.5
12 21.06 ЮВ 5 н/о н/о +13.7 -6.5 24 +12 +12 1020.7 977.0
14 21.06 ЮВ 7 н/о н/о +12.4 -6.5 26 +10 +10 1020.5 976.8 +20.6
15 21.06 ЮВ 6 н/о н/о +11.6 -6.3 28 +9 +9 1020.7 977.0
17 21.06 ЮВ 7 н/о н/о +10.1 -6.2 31 +7 +7 1020.5 976.8
18 21.06 ЮВ 7 н/о н/о +9.4 -6.0 33 +6 +6 1020.5 976.8
20 21.06 ЮВ 7 н/о н/о +8.5 -4.6 39 +5 +5 1020.7 977.0
21 21.06 ЮВ 8 н/о н/о +8.3 -4.5 40 +4 +4 1020.7 977.0
23 21.06 ЮВ 9 н/о н/о +10.0 -4.0 37 +6 +6 1021.8 978.0
00 22.06 В 10 н/о н/о +11.6 -4.1 33 +8 +8 1021.8 978.0
02 22.06 В 9 н/о н/о +15.3 -5.7 23 +14 +14 1020.8 977.1 +8.2
03 22.06 В 7 н/о н/о +17.4 -6.4 19 +16 +16 1019.9 976.2
05 22.06 ЮВ 7 н/о н/о +19.5 -9.6 13 +19 +19 1018.1 974.5
06 22.06 В 6 н/о н/о +20.3 -10.0 12 +19 +19 1017.8 974.2
08 22.06 ЮВ 5 н/о н/о +19.4 -10.7 12 +19 +19 1017.9 974.3
09 22.06 ЮВ 5 н/о н/о +17.6 -9.3 15 +17 +17 1018.4 974.8
11 22.06 ЮВ 3 н/о н/о +14.7 -8.7 19 +14 +14 1019.7 976.0
12 22.06 ЮВ 4 н/о н/о +13.6 -8.3 21 +12 +12 1020.3 976.6
14 22.06 ЮВ 5 н/о н/о +12.0 -7.4 25 +10 +10 1020.4 976.7 +20.7
15 22.06 ЮВ 6 н/о н/о +11.6 -7.2 26 +9 +9 1020.0 976.3
17 22.06 ЮВ 7 н/о н/о +10.7 -7.0 28 +8 +8 1019.8 976.1
18 22.06 В 8 н/о н/о +10.3 -6.5 30 +7 +7 1019.4 975.7
20 22.06 В 7 н/о н/о +9.1 -5.9 34 +6 +6 1020.0 976.3
21 22.06 ЮВ 6 н/о н/о +8.4 -5.4 37 +5 +5 1020.5 976.8
23 22.06 В 7 н/о н/о +10.1 -3.9 37 +7 +7 1021.7 977.9
00 23.06 В 9 н/о н/о +12.4 -3.4 33 +10 +10 1022.3 978.5
02 23.06 В 8 н/о н/о +16.5 -4.1 24 +15 +15 1021.8 978.0 +8.1
03 23.06 В 8 н/о н/о +17.8 -6.1 19 +17 +17 1020.7 977.0
05 23.06 ЮВ 6 н/о н/о +19.9 -7.5 15 +19 +19 1019.1 975.4
06 23.06 ЮВ 7 н/о н/о +20.5 -8.8 13 +20 +20 1018.7 975.1
08 23.06 ЮВ 7 н/о н/о +19.8 -8.4 14 +19 +19 1018.8 975.2
09 23.06 ЮВ 5 н/о н/о +18.1 -8.1 16 +18 +18 1019.4 975.7
11 23.06 ЮВ 5 н/о н/о +15.3 -6.9 21 +14 +14 1020.0 976.3
12 23.06 ЮВ 5 н/о н/о +14.2 -6.6 23 +13 +13 1020.6 976.9
14 23.06 ЮВ 6 н/о н/о +13.2 -5.9 26 +11 +11 1020.7 977.0 +21.2
15 23.06 ЮВ 5 н/о н/о +12.2 -5.7 28 +10 +10 1020.7 977.0
17 23.06 ЮВ 5 н/о н/о +10.9 -6.0 30 +9 +9 1020.7 977.0
18 23.06 ЮВ 6 н/о н/о +10.7 -6.1 30 +8 +8 1020.8 977.1
20 23.06 В 8 н/о н/о +10.0 -6.8 30 +7 +7 1020.8 977.1
21 23.06 В 8 н/о н/о +9.8 -6.5 31 +6 +6 1021.2 977.5
23 23.06 В 10 н/о н/о +10.9 -5.5 31 +7 +7 1022.5 978.7
00 24.06 В 10 н/о н/о +12.9 -4.7 29 +10 +10 1023.1 979.3
02 24.06 В 8 н/о н/о +16.8 -6.3 20 +16 +16 1022.8 979.0 +9.4
03 24.06 В 7 н/о н/о +18.2 -8.0 16 +17 +17 1022.1 978.3
05 24.06 В 6 н/о н/о +20.6 -10.9 11 +20 +20 1020.0 976.3
06 24.06 В 6 н/о н/о +21.4 -11.4 10 +20 +20 1019.6 975.9
08 24.06 ЮВ 5 н/о н/о +20.4 -11.0 11 +20 +20 1020.3 976.6
09 24.06 ЮВ 3 н/о н/о +18.7 -9.3 14 +19 +19 1020.8 977.1
11 24.06 ЮВ 4 н/о н/о +16.2 -8.8 17 +16 +16 1022.2 978.4
12 24.06 ЮВ 5 н/о н/о +15.1 -8.3 19 +14 +14 1022.4 978.6
14 24.06 ЮВ 5 н/о н/о +14.3 -6.5 23 +13 +13 1022.2 978.4 +21.8
15 24.06 ЮВ 6 н/о н/о +13.8 -5.9 25 +12 +12 1021.7 977.9
17 24.06 В 5 н/о н/о +12.1 -6.3 27 +10 +10 1021.4 977.6
18 24.06 В 6 н/о н/о +11.8 -6.6 27 +10 +10 1021.2 977.5
20 24.06 В 7 н/о н/о +10.9 -6.4 29 +8 +8 1021.8 978.0
21 24.06 ЮВ 7 н/о н/о +10.8 -6.1 30 +8 +8 1022.3 978.5
23 24.06 ЮВ 8 н/о н/о +12.4 -4.7 30 +10 +10 1023.3 979.5
00 25.06 В 8 н/о н/о +14.6 -5.2 25 +13 +13 1023.7 979.8
02 25.06 В 8 н/о н/о +18.5 -7.8 16 +18 +18 1023.1 979.3 +10.2
03 25.06 ЮВ 7 н/о н/о +20.3 -10.0 12 +19 +19 1022.3 978.5
05 25.06 ЮВ 7 н/о н/о +22.2 -10.8 10 +20 +20 1020.7 977.0
06 25.06 Ю 7 н/о н/о +22.3 -13.5 8 +20 +20 1020.6 976.9
08 25.06 ЮВ 7 н/о н/о +21.6 -12.6 9 +20 +20 1020.4 976.7
09 25.06 ЮВ 4 н/о н/о +20.1 -12.4 10 +19 +19 1020.8 977.1
11 25.06 ЮВ 5 н/о н/о +17.8 -10.9 13 +17 +17 1021.7 977.9
12 25.06 ЮВ 5 н/о н/о +17.0 -10.7 14 +17 +17 1021.8 978.0
14 25.06 ЮВ 7 н/о н/о +16.0 -9.0 17 +15 +15 1021.9 978.1 +23.0
15 25.06 ЮВ 6 н/о н/о +15.4 -8.8 18 +14 +14 1021.6 977.8
17 25.06 ЮВ 7 н/о н/о +14.5 -8.8 19 +13 +13 1021.0 977.3
18 25.06 ЮВ 7 н/о н/о +13.9 -8.7 20 +12 +12 1021.0 977.3
20 25.06 ЮВ 7 н/о н/о +13.1 -7.5 23 +11 +11 1021.5 977.7
21 25.06 ЮВ 7 н/о н/о +12.4 -7.0 25 +10 +10 1021.8 978.0
23 25.06 В 9 н/о н/о +13.7 -5.9 25 +11 +11 1022.9 979.1
00 26.06 В 9 н/о н/о +16.0 -5.7 22 +14 +14 1023.0 979.2
02 26.06 В 9 н/о н/о +19.8 -5.9 17 +19 +19 1022.1 978.3 +12.2
03 26.06 В 8 н/о н/о +21.1 -5.7 16 +20 +20 1020.9 977.2

 

Местоположение метеостанции Теннант-Крик (Северная территория, Австралия): широта -19.63 долгота 134.18 высота над уровнем моря 377 м.

В архиве по умолчанию представлена погода в Теннант-Крике за последнюю неделю. Архивные данные за месяц целиком и за предыдущие месяцы, начиная с января 2011 года, Вы можете получить, выбрав интересующий диапазон дат из раскрывающегося списка и нажав кнопку "Ввод!".


*Определитесь, кто Вы:
робот инопланетянин человек

Внимание! Время в таблицах - всемирное. Для получения местного времени необходимо прибавить поправку, которая равна 9.5 ч.

Смотрите также архив погоды в соседних городах и на ближайших метеорологических станциях:

Погода на Виноградной ферма (Северная территория, Австралия) (319 км)
Погода в Дейли Уотерс (Северная территория, Австралия) (386 км)
Погода в Ладжаману (Северная территория, Австралия) (400 км)
Погода в Аэропорту Макартур Ривер Майн (Северная территория, Австралия) (408 км)
Погода в Камоауиле (Квинсленд, Австралия) (413 км)
Погода в Джервойсе (Северная территория, Австралия) (422 км)
Погода в Раббит Флат (Северная территория, Австралия) (439 км)
Погода в Борролооле (Северная территория, Австралия) (454 км)
Погода в Элис-Спрингсе (Северная территория, Австралия) (465 км)
Погода на Руднике Century Mine (Квинсленд, Австралия) (485 км)

Пояснения к столбцам:

Ветер - указаны скорость ветра в м/с - средняя за 10 мин, порывы в срок и между сроками (в фигурных скобках) и направление, откуда дует ветер: С - северный, СВ - северо-восточный, В - восточный, ЮВ - юго-восточный, Ю - южный, ЮЗ - юго-западный, З - западный, СЗ - северо-западный.
Видимость - горизонтальная дальность видимости в метрах или километрах. При видимости от 1 до 10 км при отсутствии осадков обычно наблюдается дымка, при ухудшении видимости до 1 км и менее - туман. В сухую погоду видимость может ухудшаться дымом, пылью или мглою.
Явления - указаны атмосферные явления, наблюдавшиеся в срок или в последний час перед сроком; фигурными скобками обозначены явления, наблюдавшиеся между сроками (за 1-3 часа до срока); квадратными скобками обозначены град или гололедные отложения с указанием их диаметра в мм.
Облачность - указаны через наклонную черту общая и нижняя облачность в баллах и высота нижней границы облаков в метрах; квадратными скобками обозначены формы облаков: Ci - перистые, Cs - перисто-слоистые, Cc - перисто-кучевые, Ac - высококучевые, As - высокослоистые, Sc - слоисто-кучевые, Ns - слоисто-дождевые, Cu - кучевые, Cb - кучево-дождевые. Подробнее классификацию облаков см. в Атласе облаков (PDF).
T - Температура воздуха - температура, измеренная на высоте 2 м над землей.
Td - Температура точки росы - температура, при понижении до которой содержащийся в воздухе водяной пар достигнет насыщения.
f - Относительная влажность воздуха - влажноcть воздуха, измеренная на высоте 2 м над землей.
Te - Эффективная температура - температура, которую ощущает одетый по сезону человек в тени. Характеристика душности погоды. При расчете учитывается влияние влажности воздуха и скорости ветра на теплоощущения человека.
Tes - Эффективная температура на солнце - температура, которую ощущает человек, с поправкой на солнечный нагрев. Характеристика знойности погоды. Зависит от высоты солнца над горизонтом, облачности и скорости ветра. Ночью, в пасмурную погоду, а также при ветре 12 м/с и более поправка равна нулю.
P - Атмосферное давление - приведенное к уровню моря атмосферное давление.
Po - Атмосферное давление - измеренное на уровне метеостанции атмосферное давление.
Tmin - Минимальная температура - минимум температуры воздуха на высоте 2 м над землей.
Tmax - Максимальная температура - максимум температуры воздуха на высоте 2 м над землей.
R - Количество осадков - Количество выпавших осадков за период времени, мм. При наведении курсора мыши на число - период времени, за который выпало указанное количество осадков.
R24 - Количество осадков - Количество выпавших осадков за 24 часа, мм.
S - Снежный покров - Высота снежного покрова, см. При наведении курсора мыши на число - состояние снежного покрова и степень покрытия местности в баллах.